[ hide orbit diagram ]
For accurate long-term ephemerides, please instead use our Horizons system.This orbit viewer was implemented using two-body methods, and hence should not be used for determining accurate long-term trajectories (over several years or decades) or planetary encounter circumstances.
Orbital Elements at Epoch 2459000.5 (2020-May-31.0) TDB
Reference: JPL 15 (heliocentric ecliptic J2000)
Element | Value | Uncertainty (1-sigma) | Units |
e | .05534605306200713 | 4.4177e-08 | |
a | 2.748870318611826 | 2.1916e-08 | au |
q | 2.596731196097359 | 1.1826e-07 | au |
i | .9917363291889375 | 4.4523e-06 | deg |
node | 323.4322397107395 | 0.00033127 | deg |
peri | 332.4307313669599 | 0.00033609 | deg |
M | 68.04953551557288 | 5.5211e-05 | deg |
tp | 2458685.832080131689 (2019-Jul-21.33208013) | 0.00025565 | TDB |
period | 1664.676331650612 4.56 | 1.9908e-05 5.451e-08 | d yr |
n | .2162582558274506 | 2.5862e-09 | deg/d |
Q | 2.901009441126292 | 2.3129e-08 | au |
|
| | Orbit Determination Parameters
Additional Information
|
[ show covariance matrix ]
Physical Parameter Table
Parameter |
Symbol |
Value |
Units |
Sigma |
Reference |
Notes |
absolute magnitude |
H |
16.4 |
|
n/a |
MPO494183 |
|
|
214623 (2006 RT84) Discovered 2006-Sep-15 by Spacewatch at Kitt Peak |
Reference: 20090509/Numbers.arc | Last Updated: 2009-05-11 |
|
[ show close-approach data ]
|